• In Hungary
  • List of Countries
  • For 7 days
  • Water Temperature
  • Satellite Maps
  • Weather Map
  • News
  • Weather Widgets
  • user-avatar
    Login

    Hourly Weather Parakou

    Today, 13 November, Tuesday

    Time Temperature Precipitation Wind Pressure Humidity
    00:00 +27°C° 0 mm 1 mps 726 mmHg 28%
    01:00 +26°C° 0 mm 1 mps 726 mmHg 29%
    02:00 +26°C° 0 mm 1 mps 726 mmHg 30%
    03:00 +25°C° 0 mm 1 mps 726 mmHg 31%
    04:00 +25°C° 0 mm 1 mps 726 mmHg 35%
    05:00 +25°C° 0 mm 1 mps 726 mmHg 38%
    06:00 +24°C° 0 mm 1 mps 726 mmHg 42%
    07:00 +25°C° 0 mm 0 mps 727 mmHg 39%
    08:00 +29°C° 0 mm 0 mps 727 mmHg 36%
    09:00 +32°C° 0 mm 0 mps 728 mmHg 33%
    10:00 +34°C° 0 mm 0 mps 727 mmHg 27%
    11:00 +39°C° 0 mm 1 mps 727 mmHg 22%
    12:00 +41°C° 0 mm 1 mps 726 mmHg 16%
    13:00 +40°C° 0 mm 1 mps 726 mmHg 16%
    14:00 +40°C° 0 mm 1 mps 725 mmHg 15%
    15:00 +40°C° 0 mm 1 mps 724 mmHg 15%
    16:00 +37°C° 0 mm 1 mps 724 mmHg 17%
    17:00 +33°C° 0 mm 0 mps 724 mmHg 19%
    18:00 +30°C° 0 mm 0 mps 724 mmHg 21%
    19:00 +29°C° 0 mm 0 mps 725 mmHg 22%
    20:00 +29°C° 0 mm 0 mps 725 mmHg 23%
    21:00 +30°C° 0 mm 1 mps 726 mmHg 24%
    22:00 +29°C° 0 mm 1 mps 726 mmHg 25%
    23:00 +29°C° 0 mm 1 mps 726 mmHg 26%

    Tomorrow, 14 November, Wednesday

    Time Temperature Precipitation Wind Pressure Humidity
    00:00 +28°C° 0 mm 1 mps 726 mmHg 26%
    01:00 +27°C° 0 mm 1 mps 726 mmHg 29%
    02:00 +27°C° 0 mm 1 mps 725 mmHg 32%
    03:00 +26°C° 0 mm 1 mps 725 mmHg 35%
    04:00 +26°C° 0 mm 1 mps 725 mmHg 44%
    05:00 +25°C° 0 mm 1 mps 726 mmHg 52%
    06:00 +23°C° 0 mm 0 mps 726 mmHg 60%
    07:00 +26°C° 0 mm 0 mps 726 mmHg 55%
    08:00 +29°C° 0 mm 0 mps 727 mmHg 50%
    09:00 +34°C° 0 mm 1 mps 728 mmHg 44%
    10:00 +34°C° 0 mm 0 mps 727 mmHg 37%
    11:00 +36°C° 0 mm 0 mps 727 mmHg 29%
    12:00 +39°C° 0 mm 0 mps 726 mmHg 21%
    13:00 +41°C° 0 mm 1 mps 725 mmHg 19%
    14:00 +41°C° 0 mm 1 mps 725 mmHg 17%
    15:00 +41°C° 0 mm 1 mps 724 mmHg 16%
    16:00 +37°C° 0 mm 1 mps 724 mmHg 18%
    17:00 +35°C° 0 mm 1 mps 724 mmHg 20%
    18:00 +33°C° 0 mm 1 mps 724 mmHg 22%
    19:00 +32°C° 0 mm 1 mps 725 mmHg 23%
    20:00 +31°C° 0 mm 1 mps 725 mmHg 25%
    21:00 +30°C° 0 mm 1 mps 726 mmHg 26%
    22:00 +30°C° 0 mm 1 mps 726 mmHg 27%
    23:00 +29°C° 0 mm 1 mps 726 mmHg 29%

    Day after tomorrow, 15 November, Thursday

    Time Temperature Precipitation Wind Pressure Humidity
    00:00 +29°C° 0 mm 1 mps 726 mmHg 30%
    01:00 +28°C° 0 mm 1 mps 726 mmHg 40%
    02:00 +28°C° 0 mm 2 mps 725 mmHg 49%
    03:00 +27°C° 0 mm 2 mps 725 mmHg 59%
    04:00 +26°C° 0 mm 2 mps 725 mmHg 65%
    05:00 +26°C° 0 mm 1 mps 726 mmHg 71%
    06:00 +25°C° 0 mm 1 mps 726 mmHg 78%
    07:00 +28°C° 0 mm 1 mps 727 mmHg 72%
    08:00 +30°C° 0 mm 1 mps 727 mmHg 66%
    09:00 +32°C° 0 mm 1 mps 728 mmHg 60%
    10:00 +34°C° 0 mm 1 mps 728 mmHg 50%
    11:00 +37°C° 0 mm 1 mps 727 mmHg 40%
    12:00 +41°C° 0 mm 1 mps 727 mmHg 31%
    13:00 +40°C° 0 mm 1 mps 726 mmHg 29%
    14:00 +40°C° 0 mm 1 mps 725 mmHg 27%
    15:00 +40°C° 0 mm 1 mps 724 mmHg 25%
    16:00 +37°C° 0 mm 1 mps 724 mmHg 28%
    17:00 +35°C° 0 mm 1 mps 725 mmHg 31%
    18:00 +34°C° 0 mm 1 mps 725 mmHg 35%
    19:00 +33°C° 0 mm 1 mps 726 mmHg 38%
    20:00 +32°C° 0 mm 1 mps 726 mmHg 40%
    21:00 +31°C° 0 mm 1 mps 727 mmHg 43%
    22:00 +31°C° 0 mm 1 mps 727 mmHg 48%
    23:00 +30°C° 0 mm 1 mps 727 mmHg 52%

    16 November, Friday

    Time Temperature Precipitation Wind Pressure Humidity
    00:00 +29°C° 0 mm 2 mps 727 mmHg 56%
    01:00 +29°C° 0 mm 2 mps 727 mmHg 63%
    02:00 +28°C° 0 mm 2 mps 726 mmHg 69%
    03:00 +27°C° 0 mm 2 mps 726 mmHg 76%
    04:00 +27°C° 0 mm 2 mps 727 mmHg 79%
    05:00 +26°C° 0 mm 1 mps 727 mmHg 83%
    06:00 +26°C° 0 mm 1 mps 727 mmHg 87%
    07:00 +28°C° 0 mm 1 mps 728 mmHg 79%
    08:00 +29°C° 0 mm 2 mps 728 mmHg 70%
    09:00 +31°C° 0 mm 2 mps 729 mmHg 62%
    10:00 +35°C° 0 mm 2 mps 728 mmHg 52%
    11:00 +36°C° 0 mm 1 mps 728 mmHg 42%
    12:00 +40°C° 0 mm 1 mps 728 mmHg 32%
    13:00 +37°C° 0 mm 0 mps 727 mmHg 30%
    14:00 +37°C° 0 mm 0 mps 726 mmHg 28%
    15:00 +37°C° 0 mm 0 mps 725 mmHg 26%
    16:00 +35°C° 0 mm 0 mps 726 mmHg 28%
    17:00 +35°C° 0 mm 1 mps 726 mmHg 31%
    18:00 +33°C° 0 mm 1 mps 726 mmHg 33%
    19:00 +32°C° 0 mm 1 mps 726 mmHg 35%
    20:00 +32°C° 0 mm 1 mps 727 mmHg 37%
    21:00 +31°C° 0 mm 1 mps 727 mmHg 39%
    22:00 +30°C° 0 mm 1 mps 727 mmHg 41%
    23:00 +30°C° 0 mm 1 mps 727 mmHg 43%

    17 November, Saturday

    Time Temperature Precipitation Wind Pressure Humidity
    00:00 +29°C° 0 mm 1 mps 727 mmHg 45%
    01:00 +28°C° 0 mm 1 mps 726 mmHg 52%
    02:00 +28°C° 0 mm 1 mps 726 mmHg 58%
    03:00 +27°C° 0 mm 1 mps 726 mmHg 65%
    04:00 +27°C° 0 mm 2 mps 726 mmHg 72%
    05:00 +26°C° 0 mm 2 mps 727 mmHg 78%
    06:00 +26°C° 0 mm 2 mps 727 mmHg 85%
    07:00 +28°C° 0 mm 2 mps 728 mmHg 77%
    08:00 +30°C° 0 mm 2 mps 728 mmHg 69%
    09:00 +33°C° 0 mm 3 mps 729 mmHg 62%
    10:00 +35°C° 0 mm 2 mps 728 mmHg 51%
    11:00 +37°C° 0 mm 2 mps 727 mmHg 41%
    12:00 +39°C° 0 mm 2 mps 727 mmHg 31%
    13:00 +39°C° 0 mm 1 mps 726 mmHg 29%
    14:00 +40°C° 0 mm 1 mps 725 mmHg 26%
    15:00 +40°C° 0 mm 1 mps 725 mmHg 24%
    16:00 +37°C° 0 mm 1 mps 725 mmHg 27%
    17:00 +35°C° 0 mm 1 mps 725 mmHg 30%
    18:00 +33°C° 0 mm 1 mps 725 mmHg 33%
    19:00 +32°C° 0 mm 1 mps 726 mmHg 35%
    20:00 +32°C° 0 mm 1 mps 726 mmHg 38%
    21:00 +31°C° 0 mm 2 mps 727 mmHg 40%
    22:00 +30°C° 0 mm 2 mps 727 mmHg 48%
    23:00 +30°C° 0 mm 2 mps 726 mmHg 56%

    18 November, Sunday

    Time Temperature Precipitation Wind Pressure Humidity
    00:00 +29°C° 0 mm 2 mps 726 mmHg 64%
    01:00 +28°C° 0.2 mm 2 mps 726 mmHg 71%
    02:00 +27°C° 0.2 mm 2 mps 726 mmHg 77%
    03:00 +27°C° 0.2 mm 2 mps 726 mmHg 83%
    04:00 +26°C° 0.1 mm 2 mps 726 mmHg 84%
    05:00 +26°C° 0.1 mm 2 mps 727 mmHg 86%
    06:00 +26°C° 0.1 mm 2 mps 727 mmHg 87%
    07:00 +28°C° 0 mm 2 mps 727 mmHg 78%
    08:00 +30°C° 0 mm 3 mps 728 mmHg 69%
    09:00 +33°C° 0 mm 3 mps 728 mmHg 60%
    10:00 +35°C° 0 mm 2 mps 727 mmHg 51%
    11:00 +37°C° 0 mm 2 mps 727 mmHg 42%
    12:00 +39°C° 0 mm 1 mps 726 mmHg 33%
    13:00 +39°C° 0 mm 1 mps 725 mmHg 32%
    14:00 +40°C° 0 mm 1 mps 725 mmHg 30%
    15:00 +37°C° 0 mm 0 mps 724 mmHg 28%
    16:00 +37°C° 0 mm 1 mps 724 mmHg 31%
    17:00 +35°C° 0 mm 1 mps 725 mmHg 34%
    18:00 +34°C° 0 mm 1 mps 725 mmHg 36%
    19:00 +33°C° 0 mm 1 mps 725 mmHg 38%
    20:00 +34°C° 0 mm 2 mps 726 mmHg 40%
    21:00 +32°C° 0 mm 2 mps 726 mmHg 42%
    22:00 +31°C° 0.1 mm 2 mps 726 mmHg 48%
    23:00 +31°C° 0.1 mm 3 mps 726 mmHg 53%
    Show more